GW5115 Weather Reports


Display with metric or nautical units.
time (UTC)temp
F
wind
direction
speed
MPH
gust
MPH
rain 1hr
in
rain 24hr
in
rain mn
in
humidity
%
barometer
mb
20260502160237 53 307 9.0 11.0 0.00 0.00 0.00 44 1018.2
20260502152206 52 30 5.0 10.0 0.00 0.00 0.00 51 1018.5
20260502151703 50 348 7.0 11.0 0.00 0.00 0.00 51 1018.5
20260502151200 51 325 4.0 7.0 0.00 0.00 0.00 52 1018.6
20260502150657 51 325 5.0 6.0 0.00 0.00 0.00 51 1018.4
20260502150154 51 341 6.0 10.0 0.00 0.00 0.00 50 1018.6
20260502140117 50 30 6.0 9.0 0.00 0.00 0.00 61 1018.6
20260502130542 47 45 0.0 0.0 0.00 0.00 0.00 81 1018.7
20260502123525 41 94 0.0 0.0 0.00 0.00 0.00 99 1018.6
20260502123022 40 94 0.0 0.0 0.00 0.00 0.00 99 1018.5
20260502122519 39 94 0.0 0.0 0.00 0.00 0.00 99 1019.0
20260502122016 40 94 0.0 0.0 0.00 0.00 0.00 99 1019.2
20260502121514 40 94 0.0 0.0 0.00 0.00 0.00 99 1019.4
20260502121011 38 94 0.0 0.0 0.00 0.00 0.00 99 1019.2
20260502120507 38 94 0.0 0.0 0.00 0.00 0.00 99 1019.3
20260502115501 35 92 0.0 0.0 0.00 0.00 0.00 99 1019.1
20260502114957 35 90 0.0 0.0 0.00 0.00 0.00 99 1018.8
20260502114454 34 87 0.0 0.0 0.00 0.00 0.00 99 1018.9
20260502113951 34 87 0.0 0.0 0.00 0.00 0.00 99 1018.7
20260502113449 36 87 0.0 0.0 0.00 0.00 0.00 99 1018.6
20260502112947 33 87 0.0 0.0 0.00 0.00 0.00 99 1018.6
20260502112445 32 87 0.0 0.0 0.00 0.00 0.00 99 1018.4
20260502111942 32 83 0.0 0.0 0.00 0.00 0.00 99 1018.3
20260502111439 31 83 0.0 0.0 0.00 0.00 0.00 99 1018.3
20260502110936 31 83 0.0 0.0 0.00 0.00 0.00 99 1018.2
20260502110434 31 83 0.0 0.0 0.00 0.00 0.00 99 1018.4
20260502105931 31 83 0.0 0.0 0.00 0.00 0.00 99 1018.3
20260502105428 31 83 0.0 0.0 0.00 0.00 0.00 99 1018.2
20260502104926 31 83 0.0 0.0 0.00 0.00 0.00 99 1018.0
20260502104423 31 83 0.0 0.0 0.00 0.00 0.00 99 1018.0
20260502103920 31 83 0.0 0.0 0.00 0.00 0.00 99 1018.4
20260502103418 31 83 0.0 0.0 0.00 0.00 0.00 99 1018.4
20260502102915 31 83 0.0 0.0 0.00 0.00 0.00 99 1018.5
20260502102411 31 83 0.0 0.0 0.00 0.00 0.00 99 1018.6
20260502101909 31 83 0.0 0.0 0.00 0.00 0.00 99 1018.5
20260502101407 31 83 0.0 0.0 0.00 0.00 0.00 99 1018.5
20260502100905 31 83 0.0 0.0 0.00 0.00 0.00 99 1018.5
20260502100404 31 83 0.0 0.0 0.00 0.00 0.00 99 1018.5
20260502091337 31 83 0.0 0.0 0.00 0.00 0.00 99 1018.4
20260502090835 31 83 0.0 0.0 0.00 0.00 0.00 99 1018.5
20260502090332 31 83 0.0 0.0 0.00 0.00 0.00 99 1018.6
20260502071227 33 83 0.0 0.0 0.00 0.00 0.00 99 1018.2
20260502070725 33 83 0.0 0.0 0.00 0.00 0.00 99 1018.2
20260502070223 33 83 0.0 0.0 0.00 0.00 0.00 99 1018.3
20260502065721 33 83 0.0 0.0 0.00 0.00 0.00 99 1018.1
20260502065218 33 83 0.0 0.0 0.00 0.00 0.00 99 1018.0
20260502064717 33 83 0.0 0.0 0.00 0.00 0.00 99 1018.3
20260502064214 33 83 0.0 0.0 0.00 0.00 0.00 99 1018.2
20260502063711 33 83 0.0 0.0 0.00 0.00 0.00 99 1018.5
20260502063209 34 83 0.0 0.0 0.00 0.00 0.00 99 1018.5
20260502062706 33 83 0.0 0.0 0.00 0.00 0.00 99 1018.7
20260502062203 33 83 0.0 0.0 0.00 0.00 0.00 99 1018.6
20260502061702 34 83 0.0 0.0 0.00 0.00 0.00 99 1018.8
20260502061159 33 83 0.0 0.0 0.00 0.00 0.00 99 1018.8
20260502060654 34 83 0.0 0.0 0.00 0.00 0.00 99 1018.6
20260502060151 34 83 0.0 0.0 0.00 0.00 0.00 99 1018.7
20260502055648 34 83 0.0 0.0 0.00 0.00 0.00 99 1018.8
20260502055146 35 83 0.0 0.0 0.00 0.00 0.00 99 1019.0
20260502054645 35 83 0.0 0.0 0.00 0.00 0.00 99 1018.8
20260502054142 35 83 0.0 0.0 0.00 0.00 0.00 99 1019.0
20260502053639 35 83 0.0 1.0 0.00 0.00 0.00 99 1019.0
20260502053136 35 83 0.0 0.0 0.00 0.00 0.00 99 1019.0
20260502052635 35 83 0.0 0.0 0.00 0.00 0.00 99 1019.0
20260502052132 35 83 0.0 0.0 0.00 0.00 0.00 99 1018.8
20260502051630 36 83 0.0 0.0 0.00 0.00 0.00 99 1018.9
20260502051128 35 83 1.0 1.0 0.00 0.00 0.00 99 1019.0
20260502050624 35 52 0.0 0.0 0.00 0.00 0.00 99 1018.9
20260502050121 36 52 0.0 0.0 0.00 0.00 0.00 99 1019.0
20260502045617 36 52 0.0 0.0 0.00 0.00 0.00 99 1018.9
20260502045115 36 52 0.0 0.0 0.00 0.00 0.00 99 1019.2
20260502044611 37 52 0.0 0.0 0.00 0.00 0.00 99 1019.1
20260502044108 37 52 0.0 0.0 0.00 0.00 0.00 99 1019.2
20260502043606 37 52 0.0 0.0 0.00 0.00 0.00 99 1019.1
20260502043102 37 52 0.0 0.0 0.00 0.00 0.00 99 1019.0
20260502042556 37 52 0.0 0.0 0.00 0.00 0.00 99 1019.1
20260502042054 37 52 0.0 0.0 0.00 0.00 0.00 98 1018.9
20260502041552 37 52 0.0 0.0 0.00 0.00 0.00 98 1018.9
20260502041048 38 52 0.0 0.0 0.00 0.00 0.00 98 1019.1
20260502040545 38 52 0.0 0.0 0.00 0.00 0.00 98 1019.1
20260502040042 38 52 0.0 0.0 0.00 0.00 0.00 97 1019.0
20260502035538 38 52 0.0 0.0 0.00 0.00 0.00 97 1019.0
20260502035036 38 52 0.0 0.0 0.00 0.00 0.00 97 1018.9
20260502034534 39 52 0.0 0.0 0.00 0.00 0.00 96 1018.9
20260502034032 39 52 0.0 0.0 0.00 0.00 0.00 96 1019.0
20260502033530 39 52 0.0 0.0 0.00 0.00 0.00 96 1018.8
20260502033027 40 52 0.0 0.0 0.00 0.00 0.00 95 1019.0
20260502032522 40 52 0.0 0.0 0.00 0.00 0.00 95 1018.7
20260502032020 40 52 0.0 0.0 0.00 0.00 0.00 95 1018.9
20260502031517 40 51 0.0 0.0 0.00 0.00 0.00 93 1018.9
20260502031015 40 51 0.0 0.0 0.00 0.00 0.00 92 1018.9
20260502030514 41 51 0.0 0.0 0.00 0.00 0.00 90 1018.9
20260502030011 41 51 0.0 0.0 0.00 0.00 0.00 90 1018.9
20260502025508 42 51 0.0 0.0 0.00 0.00 0.00 90 1018.9
20260502025006 42 51 0.0 0.0 0.00 0.00 0.00 88 1018.8
20260502024503 43 51 0.0 0.0 0.00 0.00 0.00 85 1018.9
20260502024002 45 51 0.0 0.0 0.00 0.00 0.00 82 1018.9
20260502023459 45 51 0.0 0.0 0.00 0.00 0.00 80 1018.8
20260502022956 46 52 1.0 1.0 0.00 0.00 0.00 79 1018.6
20260502022453 46 52 1.0 2.0 0.00 0.00 0.00 77 1018.5
20260502021950 47 57 2.0 2.0 0.00 0.00 0.00 75 1018.3
20260502021447 47 74 1.0 2.0 0.00 0.00 0.00 73 1018.2
20260502020944 48 77 1.0 3.0 0.00 0.00 0.00 71 1018.2
20260502020442 48 53 1.0 1.0 0.00 0.00 0.00 71 1018.2
20260502015938 49 51 1.0 3.0 0.00 0.00 0.00 70 1018.1
20260502015436 49 56 3.0 4.0 0.00 0.00 0.00 70 1018.3
20260502014933 49 26 1.0 2.0 0.00 0.00 0.00 69 1018.1
20260502014430 49 50 2.0 3.0 0.00 0.00 0.00 68 1018.1
20260502013926 49 52 3.0 4.0 0.00 0.00 0.00 68 1017.8
20260502013422 49 25 4.0 7.0 0.00 0.00 0.00 68 1017.8
20260502012918 49 17 2.0 7.0 0.00 0.00 0.00 68 1017.9
20260502012416 49 40 5.0 11.0 0.00 0.00 0.00 67 1017.8
20260502011914 50 37 6.0 10.0 0.00 0.00 0.00 66 1017.5
20260502011410 50 26 4.0 10.0 0.00 0.00 0.00 67 1017.4
20260502010907 50 13 3.0 6.0 0.00 0.00 0.00 67 1017.3
20260502010403 50 32 4.0 8.0 0.00 0.00 0.00 65 1017.1
20260502005900 51 5 6.0 9.0 0.00 0.00 0.00 64 1017.0
20260502005358 51 57 4.0 11.0 0.00 0.00 0.00 65 1016.9
20260502004855 51 12 5.0 11.0 0.00 0.00 0.00 65 1016.8
20260502004351 51 69 3.0 9.0 0.00 0.00 0.00 65 1016.6
20260502003849 51 12 5.0 10.0 0.00 0.00 0.00 65 1016.4
20260502003346 51 51 4.0 6.0 0.00 0.00 0.00 67 1016.7
20260502002842 52 18 2.0 7.0 0.00 0.00 0.00 70 1016.4
20260502002339 52 48 10.0 14.0 0.00 0.00 0.00 70 1016.3
20260502001836 51 29 4.0 6.0 0.00 0.00 0.00 74 1016.3
20260502001334 51 20 2.0 2.0 0.00 0.00 0.00 78 1016.1
20260502000831 51 354 1.0 2.0 0.00 0.00 0.00 79 1016.2
20260502000332 51 16 0.0 0.0 0.00 0.00 0.00 79 1015.9
20260501235825 51 18 0.0 0.0 0.00 0.00 0.00 77 1015.5
20260501235321 51 349 1.0 2.0 0.00 0.00 0.00 77 1015.4
20260501234817 51 312 0.0 0.0 0.00 0.00 0.00 76 1015.5
20260501234314 51 301 0.0 0.0 0.00 0.00 0.00 76 1015.3
20260501233813 52 288 0.0 2.0 0.00 0.00 0.00 76 1015.3
20260501233309 52 14 2.0 3.0 0.00 0.00 0.00 74 1015.2
20260501232805 52 348 0.0 0.0 0.00 0.00 0.00 74 1015.1
20260501232305 52 348 1.0 1.0 0.00 0.00 0.00 73 1015.2
20260501231800 52 13 0.0 0.0 0.00 0.00 0.00 72 1015.3
20260501231258 52 33 0.0 0.0 0.00 0.00 0.00 76 1015.0
20260501230756 52 53 0.0 0.0 0.00 0.00 0.00 75 1015.2
20260501230254 52 53 2.0 2.0 0.00 0.00 0.00 74 1015.3
20260501225751 52 21 1.0 4.0 0.00 0.00 0.00 73 1015.3
20260501225249 52 13 2.0 4.0 0.00 0.00 0.00 74 1015.1
20260501224744 52 17 0.0 3.0 0.00 0.00 0.00 74 1015.1
20260501224242 52 26 2.0 2.0 0.00 0.00 0.00 75 1015.3
20260501223738 52 44 2.0 4.0 0.00 0.00 0.00 74 1015.1
20260501223235 52 53 3.0 6.0 0.00 0.00 0.00 73 1015.1
20260501222731 52 326 3.0 3.0 0.00 0.00 0.00 74 1015.4
20260501222228 52 39 0.0 6.0 0.00 0.00 0.00 74 1015.1
20260501221725 52 38 3.0 7.0 0.00 0.00 0.00 71 1015.1
20260501221222 52 25 4.0 6.0 0.00 0.00 0.00 70 1015.1
20260501220720 53 6 4.0 7.0 0.00 0.00 0.00 69 1015.2
20260501220217 53 29 6.0 8.0 0.00 0.00 0.00 67 1015.1
20260501215709 53 60 5.0 8.0 0.00 0.00 0.00 67 1015.1
20260501215204 54 316 6.0 8.0 0.00 0.00 0.00 67 1015.0
20260501214659 54 340 10.0 11.0 0.00 0.00 0.00 65 1015.0
20260501214155 54 313 8.0 11.0 0.00 0.00 0.00 66 1015.0
20260501213652 54 7 5.0 15.0 0.00 0.00 0.00 64 1014.6
20260501213148 55 36 8.0 11.0 0.00 0.00 0.00 65 1014.7
20260501212645 55 46 8.0 11.0 0.00 0.00 0.00 65 1014.7
20260501212141 55 357 5.0 9.0 0.00 0.00 0.00 68 1014.8
20260501211638 55 21 8.0 10.0 0.00 0.00 0.00 68 1014.6
20260501211136 55 59 5.0 11.0 0.00 0.00 0.00 70 1014.5
20260501210632 56 16 11.0 18.0 0.00 0.00 0.00 69 1014.5
20260501210129 56 60 6.0 16.0 0.00 0.00 0.00 71 1014.5
20260501205625 56 343 8.0 10.0 0.00 0.00 0.00 72 1014.6
20260501205123 56 20 10.0 15.0 0.00 0.00 0.00 71 1014.4
20260501204619 57 3 5.0 10.0 0.00 0.00 0.00 69 1014.6
20260501204115 56 355 6.0 9.0 0.00 0.00 0.00 71 1014.3
20260501203612 56 333 8.0 13.0 0.00 0.00 0.00 69 1014.3
20260501203109 56 333 8.0 13.0 0.00 0.00 0.00 69 1014.4
20260501202607 56 341 9.0 13.0 0.00 0.00 0.00 70 1014.3
20260501202103 56 33 4.0 10.0 0.00 0.00 0.00 70 1014.3
20260501201600 56 11 7.0 11.0 0.00 0.00 0.00 68 1014.4
20260501201056 56 21 4.0 11.0 0.00 0.00 0.00 67 1014.2
20260501200554 56 43 11.0 16.0 0.00 0.00 0.00 68 1014.1
20260501200051 56 38 10.0 14.0 0.00 0.00 0.00 66 1014.0
20260501195549 58 27 11.0 16.0 0.00 0.00 0.00 63 1013.8
20260501195044 59 23 5.0 10.0 0.00 0.00 0.00 59 1013.8
20260501194539 59 354 4.0 6.0 0.00 0.00 0.00 56 1013.8
20260501194035 59 312 7.0 15.0 0.00 0.00 0.00 56 1013.6
20260501193533 60 21 12.0 16.0 0.00 0.00 0.00 53 1013.6
20260501193032 61 32 7.0 14.0 0.00 0.00 0.00 51 1013.6
20260501192528 62 53 3.0 7.0 0.00 0.00 0.00 48 1013.6
20260501192026 62 355 4.0 13.0 0.00 0.00 0.00 44 1013.6
20260501191522 62 315 5.0 14.0 0.00 0.00 0.00 44 1013.6
20260501191020 62 280 8.0 15.0 0.00 0.00 0.00 43 1013.4
20260501190515 62 313 3.0 7.0 0.00 0.00 0.00 42 1013.3
20260501190012 63 305 6.0 11.0 0.00 0.00 0.00 43 1013.3
20260501185507 63 32 1.0 7.0 0.00 0.00 0.00 42 1013.2
20260501185003 64 280 6.0 7.0 0.00 0.00 0.00 41 1013.2
20260501184500 64 268 2.0 17.0 0.00 0.00 0.00 44 1013.3
20260501183959 65 190 6.0 8.0 0.00 0.00 0.00 39 1013.2
20260501183457 63 202 4.0 10.0 0.00 0.00 0.00 41 1013.4
20260501182953 64 17 1.0 8.0 0.00 0.00 0.00 45 1013.4
20260501182450 63 257 3.0 3.0 0.00 0.00 0.00 42 1013.6
20260501181947 63 241 9.0 21.0 0.00 0.00 0.00 41 1013.6
20260501181444 63 298 3.0 9.0 0.00 0.00 0.00 39 1013.6
20260501180941 62 299 3.0 9.0 0.00 0.00 0.00 52 1013.7
20260501180438 62 301 3.0 8.0 0.00 0.00 0.00 44 1013.7
20260501175934 61 292 6.0 8.0 0.00 0.00 0.00 38 1014.0
20260501175432 63 324 7.0 9.0 0.00 0.00 0.00 39 1014.0
20260501174928 60 56 2.0 9.0 0.00 0.00 0.00 42 1014.0
20260501174426 60 303 9.0 11.0 0.00 0.00 0.00 38 1013.9
20260501173923 60 349 4.0 7.0 0.00 0.00 0.00 44 1013.8
20260501173421 60 333 0.0 6.0 0.00 0.00 0.00 44 1013.9
20260501172916 60 223 7.0 9.0 0.00 0.00 0.00 42 1013.7
20260501172412 60 310 4.0 11.0 0.00 0.00 0.00 41 1014.1
20260501171907 62 17 5.0 9.0 0.00 0.00 0.00 37 1014.0
20260501171404 60 225 4.0 9.0 0.00 0.00 0.00 39 1013.9
20260501170901 60 337 6.0 7.0 0.00 0.00 0.00 40 1014.2
20260501170358 61 344 2.0 13.0 0.00 0.00 0.00 39 1014.0
20260501165855 62 42 5.0 7.0 0.00 0.00 0.00 43 1014.2
20260501165353 60 234 3.0 7.0 0.00 0.00 0.00 45 1014.4
20260501164850 60 222 2.0 10.0 0.00 0.00 0.00 42 1014.1
20260501164348 60 255 3.0 7.0 0.00 0.00 0.00 42 1014.2
20260501163844 60 209 5.0 11.0 0.00 0.00 0.00 43 1014.4
20260501163340 59 230 1.0 3.0 0.00 0.00 0.00 46 1014.3
20260501162837 59 280 3.0 7.0 0.00 0.00 0.00 43 1014.4
20260501162334 58 236 4.0 6.0 0.00 0.00 0.00 46 1014.3
20260501161831 58 276 6.0 9.0 0.00 0.00 0.00 43 1014.5
20260501161328 58 203 6.0 8.0 0.00 0.00 0.00 46 1014.5
20260501160824 58 209 4.0 6.0 0.00 0.00 0.00 48 1014.3